DW5256 Weather Reports


Display with metric or nautical units.
time (UTC)temp
F
wind
direction
speed
MPH
gust
MPH
rain 1hr
in
rain 24hr
in
rain mn
in
humidity
%
barometer
mb
20260903203538 79 272 1.0 9.0 0.00 0.00 0.00 57 1011.4
20260903202033 80 241 1.0 11.0 0.00 0.00 0.00 57 1011.6
20260903200535 80 230 0.0 9.0 0.00 0.00 0.00 57 1011.7
20260903195031 78 273 7.0 12.0 0.00 0.00 0.00 60 1011.8
20260903193531 80 232 1.0 12.0 0.00 0.00 0.00 59 1011.9
20260903192026 79 257 1.0 8.0 0.00 0.00 0.00 60 1012.1
20260903190522 81 234 1.0 5.0 0.00 0.00 0.00 56 1012.2
20260903185131 80 230 0.0 7.0 0.00 0.00 0.00 54 1012.3
20260903183524 79 267 0.0 8.0 0.00 0.00 0.00 51 1012.7
20260903182033 78 278 0.0 8.0 0.00 0.00 0.00 49 1012.8
20260903180523 78 286 0.0 0.0 0.00 0.00 0.00 51 1013.0
20260903175030 77 251 0.0 0.0 0.00 0.00 0.00 49 1013.0
20260903173523 76 325 0.0 0.0 0.00 0.00 0.00 53 1013.1
20260903172051 74 327 0.0 0.0 0.00 0.00 0.00 59 1013.1
20260903170521 72 327 0.0 0.0 0.00 0.00 0.00 62 1013.1
20260903165029 71 326 0.0 0.0 0.00 0.00 0.00 64 1013.1
20260903163518 70 327 0.0 0.0 0.00 0.00 0.00 67 1013.1
20260903162019 69 327 0.0 0.0 0.00 0.00 0.00 68 1013.2
20260903160531 68 326 0.0 0.0 0.00 0.00 0.00 69 1013.4
20260903155018 67 327 0.0 0.0 0.00 0.00 0.00 71 1013.3
20260903153526 66 327 0.0 0.0 0.00 0.00 0.00 72 1013.3
20260903152014 65 327 0.0 0.0 0.00 0.00 0.00 74 1013.3
20260903150524 63 326 0.0 0.0 0.00 0.00 0.00 75 1013.4
20260903145054 62 326 0.0 0.0 0.00 0.00 0.00 76 1013.5
20260903143532 61 325 0.0 0.0 0.00 0.00 0.00 78 1013.2
20260903142032 61 296 0.0 0.0 0.00 0.00 0.00 78 1013.1
20260903140529 60 275 0.0 0.0 0.00 0.00 0.00 79 1013.0
20260903135016 59 273 0.0 0.0 0.00 0.00 0.00 81 1012.7
20260903133526 59 273 0.0 0.0 0.00 0.00 0.00 83 1012.6
20260903132020 59 273 0.0 0.0 0.00 0.00 0.00 84 1012.5
20260903130522 60 273 0.0 0.0 0.00 0.00 0.00 84 1012.5
20260903125017 60 273 0.0 0.0 0.00 0.00 0.00 84 1012.5
20260903123516 60 273 0.0 0.0 0.00 0.00 0.00 85 1012.5
20260903122051 60 273 0.0 0.0 0.00 0.00 0.00 85 1012.4
20260903120550 60 273 0.0 0.0 0.00 0.00 0.00 85 1012.4
20260903115023 60 273 0.0 0.0 0.00 0.00 0.00 85 1012.5
20260903113517 61 273 0.0 0.0 0.00 0.00 0.00 85 1012.5
20260903112033 61 273 0.0 0.0 0.00 0.00 0.00 84 1012.6
20260903110541 61 273 0.0 0.0 0.00 0.00 0.00 84 1012.6
20260903105016 61 273 0.0 0.0 0.00 0.00 0.00 84 1012.7
20260903103516 61 273 0.0 0.0 0.00 0.00 0.00 84 1012.6
20260903102030 61 273 0.0 0.0 0.00 0.00 0.00 84 1012.6
20260903100520 62 273 0.0 0.0 0.00 0.00 0.00 84 1012.7
20260903095028 62 273 0.0 0.0 0.00 0.00 0.00 84 1012.8
20260903093551 62 273 0.0 0.0 0.00 0.00 0.00 84 1012.8
20260903092020 63 273 0.0 0.0 0.00 0.00 0.00 84 1013.1
20260903090517 63 273 0.0 0.0 0.00 0.00 0.00 84 1013.2
20260903085032 63 273 0.0 0.0 0.00 0.00 0.00 84 1013.2
20260903083523 63 273 0.0 0.0 0.00 0.00 0.00 84 1013.4
20260903082037 63 273 0.0 0.0 0.00 0.00 0.00 84 1013.5
20260903080532 63 273 0.0 0.0 0.00 0.00 0.00 84 1013.7
20260903075027 63 273 0.0 0.0 0.00 0.00 0.00 84 1013.5
20260903073525 63 273 0.0 0.0 0.00 0.00 0.00 84 1013.7
20260903072020 64 273 0.0 0.0 0.00 0.00 0.00 83 1013.5
20260903070516 64 273 0.0 0.0 0.00 0.00 0.00 83 1013.6
20260903065046 64 273 0.0 0.0 0.00 0.00 0.00 83 1013.8
20260903063524 64 273 0.0 0.0 0.00 0.00 0.00 82 1013.7
20260903062021 65 273 0.0 0.0 0.00 0.00 0.00 81 1013.7
20260903060519 65 273 0.0 0.0 0.00 0.00 0.00 81 1013.7
20260903055020 65 273 0.0 0.0 0.00 0.00 0.00 81 1013.9
20260903053520 66 273 0.0 0.0 0.00 0.00 0.00 80 1013.9
20260903052037 66 273 0.0 0.0 0.00 0.00 0.00 80 1014.0
20260903050516 66 273 0.0 0.0 0.00 0.00 0.00 80 1014.1
20260903045031 66 273 0.0 0.0 0.00 0.00 0.00 80 1014.1
20260903043527 66 273 0.0 0.0 0.00 0.00 0.00 80 1013.9
20260903042028 67 273 0.0 0.0 0.00 0.00 0.00 79 1013.8
20260903040554 67 273 0.0 0.0 0.00 0.00 0.00 79 1013.8
20260903035028 67 273 0.0 0.0 0.00 0.00 0.00 78 1013.5
20260903033523 67 272 0.0 1.0 0.00 0.00 0.00 77 1013.3
20260903032035 68 271 0.0 1.0 0.00 0.00 0.00 76 1013.2
20260903030515 68 269 0.0 7.0 0.00 0.00 0.00 74 1013.0
20260903025028 69 303 0.0 2.0 0.00 0.00 0.00 72 1012.9
20260903023528 70 295 0.0 2.0 0.00 0.00 0.00 69 1012.7
20260903022024 71 260 1.0 3.0 0.00 0.00 0.00 64 1012.7
20260903020522 72 259 1.0 4.0 0.00 0.00 0.00 64 1012.8
20260903015022 73 288 1.0 4.0 0.00 0.00 0.00 63 1012.8
20260903013521 74 264 1.0 4.0 0.00 0.00 0.00 61 1012.7
20260903012016 76 256 1.0 5.0 0.00 0.00 0.00 57 1012.7
20260903010518 77 236 0.0 2.0 0.00 0.00 0.00 52 1012.6
20260903005014 77 232 0.0 2.0 0.00 0.00 0.00 51 1012.6
20260903003539 77 225 1.0 3.0 0.00 0.00 0.00 52 1012.6
20260903002021 77 263 1.0 4.0 0.00 0.00 0.00 55 1012.6
20260903000547 77 250 1.0 11.0 0.00 0.00 0.00 55 1012.7
20260902235022 78 259 2.0 4.0 0.00 0.00 0.00 55 1012.7
20260902233518 78 281 1.0 10.0 0.00 0.00 0.00 55 1012.8
20260902232014 78 267 1.0 9.0 0.00 0.00 0.00 54 1012.8
20260902230527 78 253 1.0 12.0 0.00 0.00 0.00 57 1013.0
20260902225026 77 267 2.0 14.0 0.00 0.00 0.00 57 1013.1
20260902223527 79 245 2.0 10.0 0.00 0.00 0.00 57 1013.0
20260902222022 78 279 7.0 12.0 0.00 0.00 0.00 58 1013.1
20260902220520 78 263 4.0 14.0 0.00 0.00 0.00 59 1013.4
20260902215019 79 263 1.0 10.0 0.00 0.00 0.00 56 1013.4
20260902213526 78 242 7.0 12.0 0.00 0.00 0.00 58 1013.4
20260902212041 79 271 5.0 12.0 0.00 0.00 0.00 56 1013.5
20260902210524 79 285 7.0 14.0 0.00 0.00 0.00 56 1013.5
20260902205043 80 286 4.0 12.0 0.00 0.00 0.00 55 1013.5